Flag for Germany Weather past 2 weeks in Kassel, Hesse, Germany

Now
54 °F

Partly sunny.


Feels Like: 50 °F
Forecast: 39 / 50 °F
Wind: 13 mph from South

Location: Kassel / Calden

Current Time: Oct 21, 2014 at 12:57:01 PM

Latest Report: Oct 21, 2014 at 12:20 PM


Visibility: N/A

Pressure: 29.71 "Hg

Humidity: 77%

Dew point: 46 °F

Location of KasselLocation

Historic Weather in Kassel — Graph

°F

Kassel temperature yesterday

Maximum temperature yesterday: 59 °F (at 11:20 AM)
Minimum temperature yesterday: 52 °F (at 6:50 AM)
Average temperature yesterday: 56 °F

Past Weeks' High & Low Weather Summary

 TemperatureHumidityPressure
High68 °F (Oct 19, 2:50 PM)100% (Oct 7, 8:20 AM)30.18 "Hg (Oct 7, 8:20 AM)
Low46 °F (Oct 12, 6:50 AM)54% (Oct 6, 11:50 AM)29.59 "Hg (Oct 7, 10:50 AM)
Average57 °F85%29.86 "Hg
* Reported Oct 6 11:20 AM — Oct 21 11:50 AM, Kassel, Weather by CustomWeather, © 2014

Note: Actual official high and low records may vary slightly from our data, if they occured in-between our weather recording intervals... More about our weather records

Advertising

Kassel weather history for previous 24 hours

 ConditionsComfort  
Time TempWeatherWind HumidityBarometerVisibility
11:50 AM
Oct 21
52 °FBroken clouds.13 mph82%29.74 "HgN/A
11:20 AM52 °FPartly sunny.12 mph82%29.77 "HgN/A
10:50 AM52 °FPartly sunny.15 mph82%29.77 "HgN/A
10:20 AM52 °FPartly sunny.16 mph82%29.77 "HgN/A
9:50 AM52 °FPartly sunny.16 mph82%29.77 "HgN/A
9:20 AM52 °FPartly sunny.12 mph82%29.80 "HgN/A
8:50 AM52 °FPassing clouds.10 mph82%29.80 "HgN/A
8:20 AM52 °FPassing clouds.9 mph82%29.80 "HgN/A
7:50 AM52 °FPassing clouds.7 mph82%29.83 "HgN/A
7:20 AM52 °FPassing clouds.9 mph82%29.83 "HgN/A
6:50 AM52 °FPassing clouds.9 mph82%29.83 "HgN/A
6:20 AM52 °FPassing clouds.7 mph88%29.86 "HgN/A
5:50 AM52 °FPassing clouds.7 mph88%29.86 "HgN/A
9:50 PM
Oct 20
52 °FClear.5 mph88%29.95 "Hg10 mi
9:20 PM52 °FClear.7 mph88%29.95 "Hg10 mi
8:50 PM52 °FClear.6 mph82%29.95 "Hg10 mi
8:20 PM54 °FClear.8 mph82%29.95 "Hg10 mi
7:50 PM52 °FClear.8 mph88%29.98 "Hg10 mi
7:20 PM54 °FClear.6 mph82%29.95 "Hg10 mi
6:50 PM54 °FSunny.7 mph82%29.95 "Hg10 mi
6:20 PM55 °FPassing clouds.9 mph77%29.98 "HgN/A
5:50 PM57 °FSunny.13 mph72%29.98 "Hg10 mi
5:20 PM57 °FSunny.10 mph72%29.98 "Hg10 mi
4:50 PM59 °FSunny.10 mph68%29.98 "Hg10 mi
4:20 PM59 °FSunny.12 mph72%29.98 "Hg10 mi
3:50 PM59 °FScattered clouds.14 mph72%29.98 "HgN/A
3:20 PM59 °FPartly sunny.15 mph72%29.98 "HgN/A
2:50 PM59 °FBroken clouds.10 mph72%30.01 "HgN/A
2:20 PM59 °FBroken clouds.15 mph72%30.01 "HgN/A
1:50 PM59 °FBroken clouds.13 mph72%30.01 "HgN/A
1:20 PM59 °FPartly sunny.17 mph72%30.01 "HgN/A
12:50 PM59 °FPartly sunny.13 mph68%30.01 "HgN/A
12:20 PM59 °FPartly sunny.13 mph68%30.01 "HgN/A
Weather by CustomWeather, © 2014

See weather overviewHow to use our weather pages